Hourly Data Report for December 28, 2003

All times are specified in Local Standard Time (LST). Add 1 hour to adjust for Daylight Saving Time where and when it is observed.

TORONTO CITY
ONTARIO

43°40'00.000" N
79°24'00.000" W
112.50 m
6158355
71508
XTO

Download Data

Hourly Data (December 2003)
Hourly Data Report for December 28, 2003
TIME Temp Definition
°C
Dew Point Definition
°C
Rel Hum Definition
%
Wind Dir Definition
10's deg

Wind Spd Definition
km/h
Visibility Definition
km
Stn Press Definition
kPa
Hmdx Definition


Wind Chill Definition


Weather Definition


00:00 2.3 1.8 96 LegendMM LegendMM LegendMM 101.21     LegendNANA
01:00 3.0 2.3 95 LegendMM LegendMM LegendMM 101.19     LegendNANA
02:00
03:00 2.3 1.6 95 LegendMM LegendMM LegendMM 101.19     LegendNANA
04:00 2.3 1.7 96 LegendMM LegendMM LegendMM 101.14     LegendNANA
05:00 2.3 1.9 97 LegendMM LegendMM LegendMM 101.12     LegendNANA
06:00
07:00 2.5 1.7 94 LegendMM LegendMM LegendMM 101.03     LegendNANA
08:00 2.8 1.6 92 LegendMM LegendMM LegendMM 101.01     LegendNANA
09:00 3.7 2.2 90 LegendMM LegendMM LegendMM 101.00     LegendNANA
10:00 5.2 1.6 78 LegendMM LegendMM LegendMM 100.94     LegendNANA
11:00 6.2 1.4 71 LegendMM LegendMM LegendMM 100.85     LegendNANA
12:00 6.2 0.8 68 LegendMM LegendMM LegendMM 100.69     LegendNANA
13:00 7.7 0.9 62 LegendMM LegendMM LegendMM 100.67     LegendNANA
14:00 7.4 0.2 60 LegendMM LegendMM LegendMM 100.57     LegendNANA
15:00 5.9 1.5 73 LegendMM LegendMM LegendMM 100.50     LegendNANA
16:00 6.2 0.9 69 LegendMM LegendMM LegendMM 100.61     LegendNANA
17:00
18:00 6.0 -1.0 61 LegendMM LegendMM LegendMM 100.47     LegendNANA
19:00 6.1 0.3 66 LegendMM LegendMM LegendMM 100.47     LegendNANA
20:00 8.0 0.7 60 LegendMM LegendMM LegendMM 100.43     LegendNANA
21:00 7.1 0.6 63 LegendMM LegendMM LegendMM 100.41     LegendNANA
22:00 7.2 0.9 64 LegendMM LegendMM LegendMM 100.36     LegendNANA
23:00 8.0 1.0 61 LegendMM LegendMM LegendMM 100.33     LegendNANA

Notes on Data Quality.

Legend

  • E = Estimated
  • M = Missing
  • NA = Not Available*
  • [empty] = Indicates an unobserved value
Date modified: